User: anonymous   Login
Location: Ostrava
(49.8330°N, 18.2830°E)
Time: 01:11:05
(UTC+01:00)
Language:

Cosmos 1766 - Orbit

View from above orbital plane
View from above orbital plane
View from above satellite
View from above satellite

Ground track
Ground track

The orbit data is extracted from the following two-line orbital elements,

1 16881U 86055A   16341.79669966  .00001287  00000-0  77498-4 0  9998
2 16881  82.5038 211.8271 0016567  51.1003 309.1701 15.09841195652400
Epoch (UTC): 06 December 2016 19:07:14
Eccentricity: 0.0016567
inclination: 82.5038°
perigee height: 525 km
apogee height: 548 km
right ascension of ascending node: 211.8271°
argument of perigee: 51.1003°
revolutions per day: 15.09841195
mean anomaly at epoch: 309.1701°
orbit number at epoch: 65240

The dashed part of the orbit path shows where the satellite is in the earth's shadow,  

DLR